Flag for Israel Weather past 2 weeks in Netanya, Israel

Now
81 °F

Passing clouds.


Feels Like: 82 °F
Forecast: 70 / 83 °F
Wind: 13 mph from Southwest

Location: Dov Airport

Current Time: Oct 23, 2014 at 1:33:38 PM

Latest Report: Oct 23, 2014 at 12:50 PM


Visibility: N/A

Pressure: 29.98 "Hg

Humidity: 58%

Dew point: 64 °F

Location of NetanyaLocation

Historic Weather in Netanya — Graph

°F

Netanya temperature yesterday

Maximum temperature yesterday: 79 °F (at 9:50 AM)
Minimum temperature yesterday: 66 °F (at 7:50 AM)
Average temperature yesterday: 75 °F

Past Weeks' High & Low Weather Summary

 TemperatureHumidityPressure
High84 °F (Oct 8, 2:50 PM)94% (Oct 19, 5:50 PM)30.12 "Hg (Oct 19, 5:50 PM)
Low63 °F (Oct 21, 5:50 AM)37% (Oct 22, 9:50 AM)29.71 "Hg (Oct 19, 2:50 PM)
Average76 °F64%29.92 "Hg
* Reported Oct 8 11:50 AM — Oct 23 11:50 AM, Netanya, Weather by CustomWeather, © 2014

Note: Actual official high and low records may vary slightly from our data, if they occured in-between our weather recording intervals... More about our weather records

Advertising

Netanya weather history for previous 24 hours

 ConditionsComfort  
Time TempWeatherWind HumidityBarometerVisibility
11:50 AM
Oct 23
81 °FPassing clouds.12 mph62%29.98 "HgN/A
10:50 AM79 °FPassing clouds.9 mph58%29.98 "HgN/A
9:50 AM77 °FPassing clouds.6 mph57%29.98 "HgN/A
8:50 AM73 °FPassing clouds.8 mph61%29.95 "HgN/A
7:50 AM70 °FPassing clouds.7 mph64%29.95 "HgN/A
6:50 AM68 °FPassing clouds.5 mph64%29.95 "HgN/A
5:50 AM68 °FPassing clouds.3 mph64%29.92 "HgN/A
10:50 PM
Oct 22
72 °FClear.3 mph61%29.92 "Hg10 mi
9:50 PM72 °FClear.2 mph61%29.92 "Hg10 mi
8:50 PM73 °FClear.1 mph53%29.95 "Hg10 mi
7:50 PM75 °FClear.3 mph50%29.92 "Hg10 mi
6:50 PM75 °FClear.7 mph50%29.92 "Hg10 mi
5:50 PM77 °FPassing clouds.7 mph47%29.92 "HgN/A
4:50 PM77 °FSunny.5 mph44%29.92 "Hg10 mi
3:50 PM77 °FSunny.7 mph44%29.92 "Hg10 mi
2:50 PM79 °FSunny.9 mph45%29.92 "Hg10 mi
1:50 PM79 °FSunny.9 mph42%29.95 "Hg10 mi
Weather by CustomWeather, © 2014

See weather overviewHow to use our weather pages